Date String (YYYY-MM-DD hh:mm:ss) UTC,Instrument flags,absolute air pressure of the measurement (hPa),sample flow rate (lpm),inlet stack bypass flow (lpm),air temperature of the measurement (°C),ambient temperature measured by the external sensor (°C),aerosol sample conditioner tube jacket temperature (°C),OPC LED temperature (°C),internal box temperature (°C),relative humidity of the measurement (%),span deviation,mass concentration of particles derived from Lorenz-Mie calculation of OPC scattering (μg/m³),mass concentration of particles derived from Lorenz-Mie calculation of OPC scattering (μg/m³),mass concentration of particles derived from Lorenz-Mie calculation of OPC scattering (μg/m³)
DateTimeUTC,F1_M11,P_M11,Q1_M11,Q2_M11,T1_M11,T2_M11,T3_M11,T4_M11,T5_M11,U1_M11,ZSPAN_M11,X2_M11,X0_M11,X1_M11
2024-05-12 21:00:00,SystemResetWarning,0825.1,5.00,000.00,025.2,024.9,000.0,033.4,027.2,025.4,0000.0,0003.30,0005.60,0002.51
2024-05-12 21:01:00,SystemResetWarning,0824.9,4.99,000.00,025.2,023.9,000.0,033.4,026.6,025.0,0000.0,0003.34,0006.02,0002.50
2024-05-12 21:02:00,SystemResetWarning,0824.9,5.01,000.00,024.8,022.2,000.0,033.5,025.7,025.6,0000.0,0003.34,0006.06,0002.53
2024-05-12 21:03:00,SystemResetWarning,0824.9,5.01,000.00,024.6,022.2,000.0,033.4,025.6,027.2,0000.0,0003.33,0006.04,0002.52
2024-05-12 21:04:00,SystemResetWarning,0824.9,5.00,000.00,024.6,022.6,000.0,033.3,025.8,028.1,0000.0,0003.31,0006.55,0002.49
2024-05-12 21:05:00,SystemResetWarning,0824.9,4.99,000.00,024.6,022.9,000.0,033.2,026.1,028.1,0000.0,0003.28,0007.40,0002.49
2024-05-12 21:06:00,SystemResetWarning,0825.0,4.99,000.00,024.7,023.2,000.0,033.1,026.3,027.5,0000.0,0003.28,0007.40,0002.49
2024-05-12 21:07:00,SystemResetWarning,0825.0,5.00,000.00,024.7,023.5,000.0,033.1,026.4,027.3,0000.0,0003.28,0007.38,0002.48
2024-05-12 21:08:00,SystemResetWarning,0825.0,5.01,000.00,024.8,023.8,000.0,033.1,026.5,026.8,0000.0,0003.28,0007.39,0002.49
2024-05-12 21:09:00,SystemResetWarning,0825.1,5.00,000.00,024.8,024.0,000.0,033.1,026.7,026.9,0000.0,0003.30,0007.46,0002.51
2024-05-12 21:10:00,SystemResetWarning,0825.1,5.00,000.00,024.9,024.2,000.0,033.1,026.8,026.4,0000.0,0003.30,0007.50,0002.52
2024-05-12 21:11:00,SystemResetWarning,0825.1,4.99,000.00,025.0,024.3,000.0,033.2,026.8,027.0,0000.0,0003.29,0007.46,0002.53
2024-05-12 21:12:00,SystemResetWarning,0825.1,5.01,000.00,025.0,024.5,000.0,033.2,026.9,027.2,0000.0,0003.29,0007.35,0002.54
2024-05-12 21:13:00,SystemResetWarning,0825.1,5.01,000.00,025.1,024.6,000.0,033.2,027.0,027.2,0000.0,0003.28,0007.13,0002.52
2024-05-12 21:14:00,SystemResetWarning,0825.1,4.99,000.00,025.1,024.7,000.0,033.2,027.1,026.3,0000.0,0003.27,0007.26,0002.51
2024-05-12 21:15:00,SystemResetWarning,0825.1,4.99,000.00,025.2,024.8,000.0,033.3,027.1,026.7,0000.0,0003.30,0007.41,0002.53
2024-05-12 21:16:00,SystemResetWarning,0825.1,5.00,000.00,025.3,024.9,000.0,033.3,027.2,027.0,0000.0,0003.31,0006.28,0002.53
2024-05-12 21:17:00,SystemResetWarning,0825.1,4.99,000.00,025.2,023.9,000.0,033.3,026.6,027.0,0000.0,0003.34,0006.40,0002.52
2024-05-12 21:18:00,SystemResetWarning,0825.0,5.01,000.00,024.8,022.2,000.0,033.4,025.7,027.0,0000.0,0003.32,0006.42,0002.51
2024-05-12 21:19:00,SystemResetWarning,0825.0,5.02,000.00,024.6,022.2,000.0,033.4,025.6,027.9,0000.0,0003.36,0007.22,0002.51
2024-05-12 21:20:00,SystemResetWarning,0825.0,4.99,000.00,024.6,022.5,000.0,033.2,025.8,029.3,0000.0,0003.35,0007.24,0002.50
2024-05-12 21:21:00,SystemResetWarning,0825.1,5.00,000.00,024.6,022.9,000.0,033.1,026.1,027.8,0000.0,0003.34,0007.13,0002.48
2024-05-12 21:22:00,SystemResetWarning,0825.1,5.00,000.00,024.6,023.2,000.0,033.1,026.2,028.0,0000.0,0003.37,0007.23,0002.48
2024-05-12 21:23:00,SystemResetWarning,0825.1,5.00,000.00,024.7,023.5,000.0,033.1,026.4,027.3,0000.0,0003.35,0007.12,0002.47
2024-05-12 21:24:00,SystemResetWarning,0825.1,5.01,000.00,024.7,023.7,000.0,033.1,026.5,027.3,0000.0,0003.32,0007.15,0002.47
2024-05-12 21:25:00,SystemResetWarning,0825.2,5.01,000.00,024.8,023.9,000.0,033.1,026.6,027.3,0000.0,0003.34,0007.16,0002.47
2024-05-12 21:26:00,SystemResetWarning,0825.2,5.00,000.00,024.8,024.1,000.0,033.1,026.7,028.0,0000.0,0003.31,0006.45,0002.47
2024-05-12 21:27:00,SystemResetWarning,0825.2,5.00,000.00,024.9,024.2,000.0,033.1,026.8,028.2,0000.0,0003.31,0006.69,0002.45
2024-05-12 21:28:00,SystemResetWarning,0825.3,4.98,000.00,025.0,024.4,000.0,033.1,026.8,028.4,0000.0,0003.26,0007.35,0002.44
2024-05-12 21:29:00,SystemResetWarning,0825.2,5.00,000.00,025.0,024.5,000.0,033.1,026.9,027.6,0000.0,0003.24,0007.71,0002.43
2024-05-12 21:30:00,SystemResetWarning,0825.2,5.01,000.00,025.1,024.6,000.0,033.2,027.0,026.8,0000.0,0003.22,0007.76,0002.42
2024-05-12 21:31:00,SystemResetWarning,0825.3,5.01,000.00,025.2,024.7,000.0,033.2,027.1,026.9,0000.0,0003.19,0007.84,0002.43
2024-05-12 21:32:00,SystemResetWarning,0825.2,5.00,000.00,025.2,024.8,000.0,033.3,027.2,027.1,0000.0,0003.16,0007.92,0002.44
2024-05-12 21:33:00,SystemResetWarning,0825.2,4.98,000.00,025.2,023.8,000.0,033.3,026.6,026.9,0000.0,0003.10,0007.80,0002.43
2024-05-12 21:34:00,SystemResetWarning,0825.2,5.02,000.00,024.8,022.1,000.0,033.4,025.6,027.8,0000.0,0003.10,0008.13,0002.44
2024-05-12 21:35:00,SystemResetWarning,0825.2,5.00,000.00,024.6,022.1,000.0,033.3,025.5,027.7,0000.0,0003.10,0008.34,0002.45
2024-05-12 21:36:00,SystemResetWarning,0825.1,4.99,000.00,024.5,022.4,000.0,033.2,025.6,027.8,0000.0,0003.08,0008.43,0002.45
2024-05-12 21:37:00,SystemResetWarning,0825.1,5.01,000.00,024.5,022.7,000.0,033.1,025.9,028.3,0000.0,0003.03,0008.35,0002.45
2024-05-12 21:38:00,SystemResetWarning,0825.1,5.00,000.00,024.6,023.1,000.0,033.1,026.2,027.9,0000.0,0003.08,0008.36,0002.45
2024-05-12 21:39:00,SystemResetWarning,0825.1,5.00,000.00,024.6,023.4,000.0,033.0,026.3,027.3,0000.0,0003.08,0007.68,0002.46
2024-05-12 21:40:00,SystemResetWarning,0825.1,4.99,000.00,024.7,023.6,000.0,033.0,026.4,027.1,0000.0,0003.07,0007.27,0002.47
2024-05-12 21:41:00,SystemResetWarning,0825.1,5.00,000.00,024.7,023.8,000.0,033.0,026.5,027.1,0000.0,0003.10,0006.71,0002.48
2024-05-12 21:42:00,SystemResetWarning,0825.0,5.00,000.00,024.8,024.0,000.0,033.0,026.6,027.3,0000.0,0003.07,0006.37,0002.47
2024-05-12 21:43:00,SystemResetWarning,0825.0,5.00,000.00,024.8,024.2,000.0,033.1,026.7,026.9,0000.0,0003.07,0006.04,0002.46
2024-05-12 21:44:00,SystemResetWarning,0825.0,5.01,000.00,024.9,024.3,000.0,033.1,026.8,026.9,0000.0,0003.09,0006.51,0002.46
2024-05-12 21:45:00,SystemResetWarning,0825.0,5.00,000.00,024.9,024.4,000.0,033.1,026.8,027.8,0000.0,0003.10,0006.26,0002.47
2024-05-12 21:46:00,SystemResetWarning,0825.0,4.99,000.00,025.0,024.5,000.0,033.1,026.9,027.5,0000.0,0003.06,0005.88,0002.46
2024-05-12 21:47:00,SystemResetWarning,0825.0,5.00,000.00,025.1,024.6,000.0,033.2,027.0,027.8,0000.0,0003.02,0005.32,0002.45
2024-05-12 21:48:00,SystemResetWarning,0825.1,4.99,000.00,025.1,024.7,000.0,033.2,027.1,028.0,0000.0,0003.06,0005.43,0002.46
2024-05-12 21:49:00,SystemResetWarning,0825.1,5.00,000.00,025.2,024.8,000.0,033.2,027.1,027.0,0000.0,0003.06,0005.52,0002.46
2024-05-12 21:50:00,SystemResetWarning,0825.1,5.00,000.00,025.2,024.8,000.0,033.3,027.2,026.9,0000.0,0003.06,0005.51,0002.48
2024-05-12 21:51:00,SystemResetWarning,0825.1,4.99,000.00,025.2,024.2,000.0,033.3,026.7,027.8,0000.0,0003.07,0005.53,0002.47
2024-05-12 21:52:00,SystemResetWarning,0825.1,5.00,000.00,024.9,022.3,000.0,033.4,025.7,027.0,0000.0,0003.03,0005.48,0002.46
2024-05-12 21:53:00,SystemResetWarning,0825.1,5.01,000.00,024.6,022.0,000.0,033.4,025.5,027.2,0000.0,0003.07,0006.17,0002.47
2024-05-12 21:54:00,SystemResetWarning,0825.1,5.00,000.00,024.5,022.4,000.0,033.2,025.6,028.0,0000.0,0003.10,0006.10,0002.48
2024-05-12 21:55:00,SystemResetWarning,0825.1,4.99,000.00,024.5,022.7,000.0,033.1,025.9,027.3,0000.0,0003.10,0005.61,0002.47
2024-05-12 21:56:00,SystemResetWarning,0825.2,4.99,000.00,024.6,023.1,000.0,033.1,026.1,027.1,0000.0,0003.10,0006.32,0002.46
2024-05-12 21:57:00,SystemResetWarning,0825.2,5.00,000.00,024.6,023.4,000.0,033.0,026.3,026.7,0000.0,0003.14,0007.18,0002.48
2024-05-12 21:58:00,SystemResetWarning,0825.2,5.00,000.00,024.7,023.6,000.0,033.0,026.4,027.0,0000.0,0003.18,0007.56,0002.50
2024-05-12 21:59:00,SystemResetWarning,0825.2,5.01,000.00,024.7,023.8,000.0,033.0,026.5,027.3,0000.0,0003.18,0008.37,0002.51
